Simultaneous Nadir Overpasses (SNOs) Predictions

Prediction of SNOs between METOP-B and NOAA-19 Satellite Orbit:

Table of predicted SNOs for the next 14.0 days since TLE Epoch: 5/22/2020
Index Date (METOP-B) Time (METOP-B) Lat,Lon (METOP-B) SZA (METOP-B ) Date (NOAA-19) Time (NOAA-19) Lat,Lon (NOAA-19) SZA (NOAA-19 ) Distance(km) Time Diff (sec)
1 05/30/2020 16:29:16 80.01, -45.02 58.90 05/30/2020 16:28:19 80.00, -45.15 58.87 2.55 57
2 05/30/2020 17:19:58 -79.99, 122.17 121.13 05/30/2020 17:19:15 -79.99, 122.31 121.14 2.92 43
3 05/30/2020 18:10:38 79.99, -70.49 58.87 05/30/2020 18:10:19 79.99, -70.46 58.86 0.92 19
4 05/30/2020 19:01:20 -79.98, 96.70 121.16 05/30/2020 19:01:16 -80.00, 96.69 121.15 1.66 4
5 05/30/2020 19:52:00 79.98, -95.96 58.84 05/30/2020 19:52:20 80.00, -96.09 58.85 3.03 20
6 05/30/2020 20:42:42 -79.97, 71.23 121.19 05/30/2020 20:43:16 -79.98, 71.39 121.16 3.29 34
7 05/30/2020 21:33:22 79.97,-121.43 58.81 05/30/2020 21:34:20 79.98,-121.40 58.84 1.73 58




NCC Satellite Simultaneous Nadir Overpasses (SNOs) Prediction Service
